Location: Devore Heights
(34.2372°N, 117.4156°W)
Time: 20:11:01
(UTC+00:00)

S-56A Canister/Altair - Pass Details

Date: 18 September 2024
Orbit: 636 x 2487 km, 38.9° (Epoch: 14 October)

Event Time Altitude Azimuth Distance (km) Brightness Sun altitude
Rises 04:12:41 0° 284° (WNW) 3,432 12.0 -28.9°
Reaches altitude 10° 04:14:53 10° 287° (WNW) 2,658 11.2 -29.3°
Maximum altitude 04:21:15 65° 10° (N) 1,336 8.6 -30.5°
Enters shadow 04:22:44 56° 56° (NE) 1,518 8.7 -30.8°
Drops below altitude 10° 04:31:04 10° 91° (E) 3,993 - -32.3°
Sets 04:35:04 0° 94° (E) 5,278 - -33.0°
